Hurlburt Field, FL

2:12 PM CDT on July 25, 2016 (GMT -0500)
Hurlburt

Weather History for KHRT - May, 2014

Change the Weather History Date:

Wednesday, May 7, 2014

  Actual Average Record
Temperature  
Mean Temperature 68 °F -  
Max Temperature 78 °F 79 °F 86 °F (2002)
Min Temperature 59 °F 62 °F 51 °F (2016)
Cooling Degree Days 4    
Growing Degree Days 18 (Base 50)    
Moisture  
Dew Point 60 °F    
Average Humidity 68    
Maximum Humidity 88    
Minimum Humidity 44    
Precipitation  
Precipitation 0.00 in - - ()
Sea Level Pressure  
Sea Level Pressure 30.08 in    
Wind  
Wind Speed 3 mph (ESE)    
Max Wind Speed 13 mph    
Max Gust Speed -    
Visibility 9 miles    
Events Rain    
Averages and records for this station are not official NWS values.
T = Trace of Precipitation, MM = Missing Value Source: NWS Daily Summary

Daily Weather History Graph

Daily Weather History Graph

Search for Another Location

Airport or City:

Trip Planner

Search our weather history database for the weather conditions in past years. The results will help you decide how hot, cold, wet, or windy it might be!

Date:

Astronomy

May. 07, 2014 Rise Set
Actual Time 5:58 AM CDT 7:28 PM CDT
Civil Twilight 5:32 AM CDT 7:54 PM CDT
Nautical Twilight 5:01 AM CDT 8:25 PM CDT
Astronomical Twilight 4:29 AM CDT 8:58 PM CDT
Moon 1:01 PM CDT (5/7) 1:27 AM CDT (5/7)
Length of Visible Light 14h 22m
Length of Day
13h 30m
First Quarter, 55% of the Moon is Illuminated
May 7
First Quarter
May 14
Full
May 21
Last Quarter
May 28
New
Jun 5
First Quarter

Hourly Weather History & Observations

Time (CDT) Temp. Dew Point Humidity Pressure Visibility Wind Dir Wind Speed Gust Speed Precip Events Conditions
12:58 AM 70.5 °F 62.1 °F 74% 30.02 in 10.0 mi North 2.3 mph - N/A   Clear
1:58 AM 69.8 °F 62.8 °F 78% 30.00 in 10.0 mi Calm Calm - N/A   Clear
2:58 AM 62.4 °F 57.0 °F 82% 30.02 in 10.0 mi North 2.3 mph - N/A   Clear
3:58 AM 62.2 °F 57.2 °F 84% 30.01 in 10.0 mi North 2.3 mph - N/A   Clear
4:58 AM 60.4 °F 55.9 °F 85% 30.02 in 10.0 mi North 2.3 mph - N/A   Clear
5:58 AM 59.7 °F 55.2 °F 85% 30.06 in 10.0 mi NNW 2.3 mph - N/A   Clear
6:33 AM 60.8 °F 55.4 °F 82% 30.06 in 1.2 mi NNW 2.3 mph - N/A   Haze
6:37 AM 60.8 °F 57.2 °F 88% 30.06 in 5.0 mi NNW 2.3 mph - N/A   Haze
6:56 AM 62.6 °F 57.2 °F 82% 30.07 in 5.0 mi NNE 2.3 mph - N/A   Clear
7:58 AM 73.4 °F 64.4 °F 73% 30.10 in 10.0 mi Variable 2.3 mph - N/A   Clear
8:58 AM 74.7 °F 64.2 °F 70% 30.12 in 10.0 mi SE 6.9 mph - 0.00 in   Clear
9:58 AM 75.7 °F 63.5 °F 66% 30.13 in 10.0 mi SE 12.7 mph - N/A   Clear
10:58 AM 77.9 °F 62.2 °F 58% 30.14 in 10.0 mi ESE 8.1 mph - N/A   Clear
11:58 AM 78.3 °F 60.4 °F 54% 30.14 in 10.0 mi SE 8.1 mph - N/A   Clear
12:58 PM 78.1 °F 63.3 °F 60% 30.13 in 10.0 mi SSE 8.1 mph - N/A   Clear
1:58 PM 78.1 °F 63.0 °F 60% 30.13 in 10.0 mi SE 6.9 mph - N/A   Clear
2:58 PM 78.4 °F 63.1 °F 59% 30.12 in 10.0 mi South 5.8 mph - N/A   Clear
3:58 PM 77.9 °F 60.1 °F 54% 30.10 in 10.0 mi Variable 5.8 mph - N/A   Clear
4:58 PM 77.7 °F 58.5 °F 51% 30.10 in 10.0 mi South 4.6 mph - N/A   Clear
5:58 PM 78.4 °F 54.7 °F 44% 30.08 in 10.0 mi South 3.5 mph - N/A   Clear
6:58 PM 75.9 °F 59.2 °F 56% 30.08 in 10.0 mi SSE 3.5 mph - N/A   Clear
7:58 PM 73.9 °F 60.3 °F 62% 30.08 in 10.0 mi Calm Calm - 0.00 in Rain Light Rain
8:06 PM 73.4 °F 60.8 °F 65% 30.07 in 10.0 mi Calm Calm - N/A   Clear
8:58 PM 72.9 °F 59.7 °F 63% 30.08 in 10.0 mi Calm Calm - 0.00 in   Clear
9:58 PM 72.7 °F 59.0 °F 62% 30.10 in 10.0 mi Calm Calm - N/A   Clear
10:58 PM 72.9 °F 62.2 °F 69% 30.09 in 10.0 mi Calm Calm - N/A   Clear
11:58 PM 72.5 °F 65.8 °F 80% 30.10 in 10.0 mi Calm Calm - N/A   Clear